Weather History for Llano, TX

Change the Weather History Date:

Thursday, August 28, 2014

  Actual Average (KBMQ) Record (KBMQ)
Temperature  
Mean Temperature 84 °F -  
Max Temperature 98 °F 90 °F 109 °F (2011)
Min Temperature 69 °F 70 °F 64 °F (2010)
Cooling Degree Days 18    
Growing Degree Days 34 (Base 50)    
Moisture  
Dew Point 64 °F    
Average Humidity 52    
Maximum Humidity 78    
Minimum Humidity 27    
Precipitation  
Precipitation 0.00 in - - ()
Sea Level Pressure  
Sea Level Pressure 29.96 in    
Wind  
Wind Speed 3 mph (SE)    
Max Wind Speed 13 mph    
Max Gust Speed 21 mph    
Visibility 10 miles    
Events      
Averages and records for this station are not official NWS values.
T = Trace of Precipitation, MM = Missing Value Source: NWS Daily Summary

Daily Weather History Graph

Daily Weather History Graph

Search for Another Location

Airport:

Trip Planner

Search our weather history database for the weather conditions in past years. The results will help you decide how hot, cold, wet, or windy it might be!

Date:

Astronomy

Aug. 28, 2014 Rise Set
Actual Time 7:08 AM CDT 8:02 PM CDT
Civil Twilight 6:43 AM CDT 8:27 PM CDT
Nautical Twilight 6:14 AM CDT 8:56 PM CDT
Astronomical Twilight 5:44 AM CDT 9:26 PM CDT
Moon 9:48 AM CDT (8/28) 9:43 PM CDT (8/28)
Length of Visible Light 13h 43m
Length of Day
12h 53m
Waxing Crescent, 9% of the Moon is Illuminated
Aug 28
Waxing Crescent
Sep 2
First Quarter
Sep 8
Full
Sep 15
Last Quarter
Sep 24
New

Hourly Weather History & Observations

Time (CDT) Temp. Heat Index Dew Point Humidity Pressure Visibility Wind Dir Wind Speed Gust Speed Precip Events Conditions
12:15 AM 78.8 °F - 57.2 °F 47% 30.03 in 10.0 mi Calm Calm - N/A   Clear
12:35 AM 77.0 °F - 57.2 °F 50% 30.04 in 10.0 mi Calm Calm - N/A   Clear
12:55 AM 77.0 °F - 57.2 °F 50% 30.04 in 10.0 mi Calm Calm - N/A   Clear
1:15 AM 75.2 °F - 59.0 °F 57% 30.03 in 10.0 mi ESE 3.5 mph - N/A   Clear
1:35 AM 75.2 °F - 57.2 °F 53% 30.03 in 10.0 mi Calm Calm - N/A   Clear
1:55 AM 75.2 °F - 59.0 °F 57% 30.04 in 10.0 mi ESE 4.6 mph - N/A   Clear
2:15 AM 75.2 °F - 59.0 °F 57% 30.03 in 10.0 mi Calm Calm - N/A   Clear
2:35 AM 75.2 °F - 59.0 °F 57% 30.03 in 10.0 mi Calm Calm - N/A   Clear
2:55 AM 73.4 °F - 60.8 °F 65% 30.02 in 10.0 mi Calm Calm - N/A   Clear
3:15 AM 73.4 °F - 60.8 °F 65% 30.02 in 10.0 mi East 3.5 mph - N/A   Clear
3:35 AM 73.4 °F - 60.8 °F 65% 30.01 in 10.0 mi Calm Calm - N/A   Clear
3:55 AM 75.2 °F - 60.8 °F 61% 30.01 in 10.0 mi Calm Calm - N/A   Clear
4:15 AM 73.4 °F - 62.6 °F 69% 30.01 in 10.0 mi Calm Calm - N/A   Clear
4:35 AM 73.4 °F - 62.6 °F 69% 30.00 in 10.0 mi Calm Calm - N/A   Clear
4:55 AM 71.6 °F - 62.6 °F 73% 30.00 in 10.0 mi Calm Calm - N/A   Clear
5:15 AM 71.6 °F - 62.6 °F 73% 30.00 in 10.0 mi Calm Calm - N/A   Clear
5:35 AM 73.4 °F - 62.6 °F 69% 30.00 in 10.0 mi Calm Calm - N/A   Clear
5:55 AM 71.6 °F - 62.6 °F 73% 30.00 in 10.0 mi Calm Calm - N/A   Clear
6:15 AM 71.6 °F - 62.6 °F 73% 30.00 in 10.0 mi Calm Calm - N/A   Clear
6:35 AM 71.6 °F - 62.6 °F 73% 30.00 in 10.0 mi Calm Calm - N/A   Clear
6:55 AM 69.8 °F - 62.6 °F 78% 30.00 in 10.0 mi Calm Calm - N/A   Clear
7:15 AM 69.8 °F - 62.6 °F 78% 30.00 in 10.0 mi Calm Calm - N/A   Clear
7:35 AM 69.8 °F - 62.6 °F 78% 30.01 in 10.0 mi Calm Calm - N/A   Clear
7:55 AM 73.4 °F - 64.4 °F 73% 30.02 in 10.0 mi Calm Calm - N/A   Clear
8:15 AM 75.2 °F - 64.4 °F 69% 30.02 in 10.0 mi Calm Calm - N/A   Clear
8:35 AM 77.0 °F - 66.2 °F 69% 30.02 in 10.0 mi Calm Calm - N/A   Clear
8:55 AM 80.6 °F 82.7 °F 66.2 °F 61% 30.02 in 10.0 mi ESE 3.5 mph - N/A   Clear
9:15 AM 80.6 °F 83.2 °F 68.0 °F 65% 30.02 in 10.0 mi SE 4.6 mph - N/A   Clear
9:55 AM 84.2 °F 87.3 °F 68.0 °F 58% 30.02 in 10.0 mi South 4.6 mph - N/A   Clear
10:15 AM 86.0 °F 89.4 °F 68.0 °F 55% 30.02 in 10.0 mi South 5.8 mph - N/A   Clear
10:35 AM 87.8 °F 90.4 °F 66.2 °F 49% 30.02 in 10.0 mi SE 8.1 mph - N/A   Clear
10:55 AM 87.8 °F 90.4 °F 66.2 °F 49% 30.02 in 10.0 mi South 6.9 mph - N/A   Clear
11:15 AM 89.6 °F 92.2 °F 66.2 °F 46% 30.02 in 10.0 mi SSE 6.9 mph - N/A   Clear
11:35 AM 89.6 °F 92.2 °F 66.2 °F 46% 30.01 in 10.0 mi SSE 5.8 mph - N/A   Clear
11:55 AM 91.4 °F 93.2 °F 64.4 °F 41% 30.00 in 10.0 mi SSE 5.8 mph - N/A   Clear
12:15 PM 91.4 °F 93.2 °F 64.4 °F 41% 29.99 in 10.0 mi SE 6.9 mph - N/A   Clear
12:35 PM 93.2 °F 94.1 °F 62.6 °F 36% 29.98 in 10.0 mi SSE 5.8 mph - N/A   Clear
12:55 PM 93.2 °F 94.9 °F 64.4 °F 38% 29.98 in 10.0 mi Calm Calm - N/A   Clear
1:15 PM 95.0 °F 95.2 °F 60.8 °F 32% 29.97 in 10.0 mi SE 8.1 mph - N/A   Partly Cloudy
1:35 PM 95.0 °F 96.0 °F 62.6 °F 34% 29.96 in 10.0 mi SSE 6.9 mph - N/A   Partly Cloudy
1:55 PM 95.0 °F 96.0 °F 62.6 °F 34% 29.95 in 10.0 mi ESE 5.8 mph - N/A   Partly Cloudy
2:15 PM 96.8 °F 97.1 °F 60.8 °F 30% 29.94 in 10.0 mi ENE 5.8 mph - N/A   Partly Cloudy
2:35 PM 96.8 °F 98.0 °F 62.6 °F 32% 29.93 in 10.0 mi SE 6.9 mph - N/A   Clear
2:55 PM 98.6 °F 98.5 °F 59.0 °F 27% 29.93 in 10.0 mi SW 3.5 mph - N/A   Clear
3:15 PM 96.8 °F 97.1 °F 60.8 °F 30% 29.92 in 10.0 mi SE 9.2 mph - N/A   Clear
3:35 PM 98.6 °F 99.4 °F 60.8 °F 29% 29.91 in 10.0 mi SE 6.9 mph - N/A   Scattered Clouds
3:55 PM 98.6 °F 99.4 °F 60.8 °F 29% 29.90 in 10.0 mi East 5.8 mph - N/A   Partly Cloudy
4:15 PM 98.6 °F 99.4 °F 60.8 °F 29% 29.89 in 10.0 mi ESE 10.4 mph - N/A   Partly Cloudy
4:35 PM 98.6 °F 99.4 °F 60.8 °F 29% 29.88 in 10.0 mi SSE 9.2 mph - N/A   Clear
4:55 PM 98.6 °F 99.4 °F 60.8 °F 29% 29.87 in 10.0 mi SSE 5.8 mph - N/A   Clear
5:15 PM 98.6 °F 99.4 °F 60.8 °F 29% 29.87 in 10.0 mi South 9.2 mph - N/A   Clear
5:35 PM 98.6 °F 99.4 °F 60.8 °F 29% 29.87 in 10.0 mi SSE 6.9 mph - N/A   Partly Cloudy
5:55 PM 98.6 °F 99.4 °F 60.8 °F 29% 29.86 in 10.0 mi SE 5.8 mph - N/A   Clear
6:15 PM 98.6 °F 99.4 °F 60.8 °F 29% 29.86 in 10.0 mi SSE 6.9 mph - N/A   Clear
6:35 PM 98.6 °F 98.5 °F 59.0 °F 27% 29.86 in 10.0 mi SSE 9.2 mph - N/A   Clear
6:55 PM 95.0 °F 98.5 °F 66.2 °F 39% 29.86 in 10.0 mi SSE 11.5 mph 20.7 mph N/A   Partly Cloudy
7:15 PM 93.2 °F 96.2 °F 66.2 °F 41% 29.86 in 10.0 mi SE 11.5 mph 18.4 mph N/A   Partly Cloudy
7:35 PM 91.4 °F 95.4 °F 68.0 °F 46% 29.86 in 10.0 mi SE 12.7 mph 18.4 mph N/A   Clear
7:55 PM 89.6 °F 93.4 °F 68.0 °F 49% 29.86 in 10.0 mi SE 11.5 mph 16.1 mph N/A   Clear
8:15 PM 89.6 °F 94.7 °F 69.8 °F 52% 29.87 in 10.0 mi SE 12.7 mph 19.6 mph N/A   Clear
8:35 PM 87.8 °F 92.6 °F 69.8 °F 55% 29.88 in 10.0 mi SSE 11.5 mph 17.3 mph N/A   Clear
8:55 PM 87.8 °F 92.6 °F 69.8 °F 55% 29.89 in 10.0 mi SSE 8.1 mph 16.1 mph N/A   Clear
9:15 PM 86.0 °F 90.4 °F 69.8 °F 58% 29.90 in 10.0 mi SE 9.2 mph - N/A   Clear
9:35 PM 84.2 °F 88.4 °F 69.8 °F 62% 29.91 in 10.0 mi SSE 10.4 mph 17.3 mph N/A   Clear
9:55 PM 84.2 °F 88.4 °F 69.8 °F 62% 29.92 in 10.0 mi SE 9.2 mph - N/A   Clear
10:15 PM 82.4 °F 86.3 °F 69.8 °F 66% 29.94 in 10.0 mi SSE 9.2 mph - N/A   Clear
10:35 PM 82.4 °F 86.3 °F 69.8 °F 66% 29.94 in 10.0 mi SE 6.9 mph - N/A   Clear
10:55 PM 82.4 °F 86.3 °F 69.8 °F 66% 29.95 in 10.0 mi SE 4.6 mph - N/A   Clear
11:15 PM 80.6 °F 83.9 °F 69.8 °F 70% 29.96 in 10.0 mi SE 4.6 mph - N/A   Clear
11:35 PM 80.6 °F 83.9 °F 69.8 °F 70% 29.95 in 10.0 mi SE 8.1 mph - N/A   Clear
11:55 PM 80.6 °F 83.9 °F 69.8 °F 70% 29.95 in 10.0 mi SE 3.5 mph - N/A   Clear